This is the latest recevied weather packets stored in our database for station/object WI5KEY. If no packets are shown the sender has not sent any weather packets the latest 10 day(s).
| Time | Temp. | Humidity | Pressure | Rain* | Wind** | Luminosity | Snow |
|---|---|---|---|---|---|---|---|
| 1777769133 | 21.67° C | 56% | 1020.2 hPa | 0 mm | - | - | - |
| 1777768231 | 22.22° C | 53% | 1020.1 hPa | 0 mm | - | - | - |
| 1777767331 | 22.22° C | 48% | 1020.3 hPa | 0 mm | - | - | - |
| 1777766433 | 22.78° C | 46% | 1020.3 hPa | 0 mm | - | - | - |
| 1777765529 | 22.78° C | 45% | 1020.2 hPa | 0 mm | - | - | - |
| 1777764628 | 22.78° C | 46% | 1020.1 hPa | 0 mm | - | - | - |
| 1777763731 | 23.33° C | 48% | 1020.1 hPa | 0 mm | - | - | - |
| 1777762827 | 23.33° C | 46% | 1020 hPa | 0 mm | - | - | - |
| 1777761926 | 23.33° C | 47% | 1020 hPa | 0 mm | - | - | - |
| 1777761025 | 23.33° C | 48% | 1019.9 hPa | 0 mm | - | - | - |
| 1777760125 | 23.33° C | 47% | 1020 hPa | 0 mm | - | - | - |
| 1777759226 | 23.33° C | 44% | 1020.1 hPa | 0 mm | - | - | - |
| 1777758329 | 23.33° C | 45% | 1020.2 hPa | 0 mm | - | - | - |
| 1777757423 | 23.33° C | 45% | 1020.5 hPa | 0 mm | - | - | - |
| 1777756529 | 23.33° C | 49% | 1020.7 hPa | 0 mm | - | - | - |
| 1777755621 | 23.33° C | 46% | 1020.9 hPa | 0 mm | - | - | - |
| 1777754719 | 23.33° C | 49% | 1021 hPa | 0 mm | - | - | - |
| 1777753817 | 22.78° C | 49% | 1021.2 hPa | 0 mm | - | - | - |
| 1777752916 | 22.78° C | 49% | 1021.3 hPa | 0 mm | - | - | - |
| 1777752017 | 22.78° C | 50% | 1021.5 hPa | 0 mm | - | - | - |
| 1777751114 | 22.78° C | 54% | 1021.5 hPa | 0 mm | - | - | - |
| 1777750213 | 22.78° C | 51% | 1021.6 hPa | 0 mm | - | - | - |
| 1777749317 | 22.22° C | 55% | 1021.7 hPa | 0 mm | - | - | - |
| 1777748412 | 22.22° C | 53% | 1021.7 hPa | 0 mm | - | - | - |
| 1777747507 | 21.67° C | 55% | 1021.9 hPa | 0 mm | - | - | - |
* Rain latest hour (hover to see other rain measurements)
** Current wind speed in m/s (hover to see current wind gust speed)